Terug naar catalogus

COSMOS 663 DEB

ActiefPO
NORAD 45505·DEBRIS·🇷🇺 Russia

Gelanceerd Jun 27, 1974 vanaf Plesetsk Cosmodrome

Loading…

Volgende Passages (komende 24 uur)

TLE

VersSource: Space-Track

Epoch: Sep 13, 2026, 20:33 UTC

1 45505U 74048C   26256.85679683  .00000334  00000-0  31176-3 0  9996
2 45505  82.9457 100.6049 0023843 332.6427  27.3474 13.79040620624116

Volg COSMOS 663 DEB in realtime met AllMySat

Download on the App Store